Location: Wildcat Hills Observatory
(41.6350°N, 103.6812°W)
Time: 02:13:57
(UTC-06:00)

Cosmos 1634 Rocket - Visible Passes

Search period start: 24 March 2017 00:00
Search period end: 03 April 2017 00:00
Orbit: 960 x 992 km, 82.9° (Epoch: 22 March)

Date Brightness Start Highest point End Pass type
(mag) Time Alt. Az. Time Alt. Az. Time Alt. Az.
24 Mar 6.4 00:47:53 16° N 00:47:53 16° N 00:49:06 10° N visible
24 Mar 6.5 23:28:26 11° NNE 23:28:26 11° NNE 23:28:35 10° NNE visible
25 Mar 6.4 01:13:05 16° NNW 01:13:05 16° NNW 01:14:25 10° N visible
25 Mar 6.3 23:53:37 15° NNE 23:53:37 15° NNE 23:54:41 10° NNE visible
26 Mar 6.4 01:38:16 14° NNW 01:38:16 14° NNW 01:39:20 10° NNW visible
27 Mar 6.2 00:18:48 19° N 00:18:48 19° N 00:20:25 10° N visible
27 Mar 6.4 22:59:18 11° NE 22:59:18 11° NE 22:59:40 10° NNE visible
28 Mar 6.2 00:43:58 20° N 00:43:58 20° N 00:45:49 10° N visible
28 Mar 6.1 23:24:28 17° NNE 23:24:28 17° NNE 23:25:54 10° NNE visible
29 Mar 6.3 01:09:07 17° NNW 01:09:07 17° NNW 01:10:51 10° NNW visible
29 Mar 5.9 23:49:36 23° N 23:49:36 23° N 23:51:42 10° N visible
30 Mar 6.5 01:34:14 12° NW 01:34:14 12° NW 01:35:13 10° NNW visible
30 Mar 6.2 22:30:03 12° NE 22:30:03 12° NE 22:30:42 10° NE visible
31 Mar 5.9 00:14:43 25° N 00:14:43 25° N 00:17:11 10° N visible
31 Mar 5.9 22:55:10 20° NNE 22:55:10 20° NNE 22:57:05 10° NNE visible
01 Apr 6.0 00:39:49 21° NNW 00:39:49 21° NNW 00:42:20 10° N visible
01 Apr 5.6 23:20:15 27° NNE 23:20:15 27° NNE 23:22:59 10° NNE visible
02 Apr 6.3 01:04:54 16° NW 01:04:54 16° NW 01:06:56 10° NNW visible
02 Apr 6.0 22:00:40 13° NE 22:00:40 13° NE 22:01:40 10° NE visible
02 Apr 5.5 23:45:19 32° N 23:45:19 32° N 23:48:32 10° N visible
